Weather History for Jefferson, NC

Change the Weather History Date:

Saturday, February 19, 2011

  Actual Average Record
Temperature  
Mean Temperature 46 °F -  
Max Temperature 53 °F 47 °F 61 °F (1971)
Min Temperature 39 °F 27 °F 10 °F (1993)
Degree Days  
Heating Degree Days 19    
Moisture  
Dew Point -2 °F    
Average Humidity 15    
Maximum Humidity 43    
Minimum Humidity 8    
Precipitation  
Precipitation 0.00 in - - ()
Sea Level Pressure  
Sea Level Pressure 30.17 in    
Wind  
Wind Speed 15 mph (NW)    
Max Wind Speed 26 mph    
Max Gust Speed 38 mph    
Visibility 10 miles    
Events      
Averages and records for this station are not official NWS values.
T = Trace of Precipitation, MM = Missing Value Source: NWS Daily Summary

Daily Weather History Graph

Daily Weather History Graph

Search for Another Location

Airport:

Trip Planner

Search our weather history database for the weather conditions in past years. The results will help you decide how hot, cold, wet, or windy it might be!

Date:

Astronomy

Feb. 19, 2011 Rise Set
Actual Time 7:09 AM EST 6:10 PM EST
Civil Twilight 6:43 AM EST 6:36 PM EST
Nautical Twilight 6:12 AM EST 7:06 PM EST
Astronomical Twilight 5:43 AM EST 7:36 PM EST
Moon 8:10 PM EST (2/19) 7:35 AM EST (2/19)
Length of Visible Light 11h 53m
Length of Day
11h 01m
Full, 97% of the Moon is Illuminated
Feb 19
Full
Feb 24
Last Quarter
Mar 4
New
Mar 12
First Quarter
Mar 19
Full

Hourly Weather History & Observations

Time (EST) Temp. Windchill Dew Point Humidity Pressure Visibility Wind Dir Wind Speed Gust Speed Precip Events Conditions
12:03 AM 50.0 °F - 23.0 °F 35% 30.16 in 10.0 mi WNW 12.7 mph 20.7 mph N/A   Clear
12:23 AM 50.0 °F - 24.8 °F 37% 30.16 in 10.0 mi NW 10.4 mph 19.6 mph N/A   Scattered Clouds
12:43 AM 48.2 °F - 24.8 °F 40% 30.16 in 10.0 mi NW 12.7 mph 23.0 mph N/A   Scattered Clouds
1:03 AM 48.2 °F - 24.8 °F 40% 30.16 in 10.0 mi NW 11.5 mph 20.7 mph N/A   Clear
1:23 AM 48.2 °F - 26.6 °F 43% 30.16 in 10.0 mi WNW 13.8 mph 18.4 mph N/A   Clear
1:43 AM 46.4 °F 41.1 °F 23.0 °F 40% 30.16 in 10.0 mi NW 11.5 mph 21.9 mph N/A   Clear
2:03 AM 46.4 °F 41.5 °F 19.4 °F 34% 30.16 in 10.0 mi NW 10.4 mph 24.2 mph N/A   Clear
2:23 AM 46.4 °F 41.5 °F 19.4 °F 34% 30.16 in 10.0 mi WNW 10.4 mph 17.3 mph N/A   Clear
2:43 AM 44.6 °F 39.7 °F 19.4 °F 37% 30.16 in 10.0 mi NW 9.2 mph 23.0 mph N/A   Clear
3:03 AM 44.6 °F 38.1 °F 15.8 °F 31% 30.15 in 10.0 mi NW 13.8 mph 27.6 mph N/A   Clear
3:23 AM 42.8 °F 38.0 °F 12.2 °F 29% 30.15 in 10.0 mi WNW 8.1 mph - N/A   Clear
3:43 AM 42.8 °F 37.0 °F 5.0 °F 21% 30.14 in 10.0 mi WNW 10.4 mph 26.5 mph N/A   Clear
4:05 AM 42.8 °F 36.6 °F 1.4 °F 18% 30.14 in 10.0 mi WNW 11.5 mph 23.0 mph N/A   Clear
4:23 AM 42.8 °F 35.8 °F -2.2 °F 15% 30.15 in 10.0 mi NW 13.8 mph 25.3 mph N/A   Clear
4:44 AM 41.0 °F 32.5 °F -4.0 °F 15% 30.15 in 10.0 mi NW 17.3 mph 21.9 mph N/A   Clear
5:03 AM 41.0 °F 32.8 °F -5.8 °F 14% 30.15 in 10.0 mi NW 16.1 mph 25.3 mph N/A   Clear
5:43 AM 41.0 °F 35.8 °F -9.4 °F 12% 30.16 in 10.0 mi NW 8.1 mph 20.7 mph N/A   Clear
6:03 AM 41.0 °F 32.5 °F -9.4 °F 12% 30.16 in 10.0 mi NW 17.3 mph 29.9 mph N/A   Clear
6:23 AM 39.2 °F 29.6 °F -9.4 °F 12% 30.16 in 10.0 mi NW 19.6 mph 31.1 mph N/A   Clear
6:44 AM 39.2 °F 30.2 °F -9.4 °F 12% 30.16 in 10.0 mi NW 17.3 mph 28.8 mph N/A   Clear
7:03 AM 39.2 °F 30.5 °F -9.4 °F 12% 30.16 in 10.0 mi NW 16.1 mph 32.2 mph N/A   Clear
7:23 AM 39.2 °F 29.6 °F -11.2 °F 11% 30.17 in 10.0 mi NNW 19.6 mph 29.9 mph N/A   Clear
7:43 AM 39.2 °F 29.0 °F -11.2 °F 11% 30.17 in 10.0 mi NW 21.9 mph 32.2 mph N/A   Clear
8:24 AM 41.0 °F 31.6 °F -13.0 °F 10% 30.18 in 10.0 mi NW 20.7 mph 32.2 mph N/A   Clear
8:43 AM 41.0 °F 31.9 °F -13.0 °F 10% 30.19 in 10.0 mi NW 19.6 mph 36.8 mph N/A   Clear
9:04 AM 42.8 °F 33.5 °F -14.8 °F 8% 30.18 in 10.0 mi NW 23.0 mph 29.9 mph N/A   Clear
9:25 AM 42.8 °F 33.3 °F -14.8 °F 8% 30.18 in 10.0 mi NW 24.2 mph 33.4 mph N/A   Clear
9:43 AM 44.6 °F 36.1 °F -14.8 °F 8% 30.18 in 10.0 mi NW 21.9 mph 31.1 mph N/A   Clear
10:03 AM 44.6 °F 35.3 °F -13.0 °F 9% 30.18 in 10.0 mi NW 26.5 mph 33.4 mph N/A   Clear
10:23 AM 46.4 °F 38.7 °F -13.0 °F 8% 30.19 in 10.0 mi NW 20.7 mph 27.6 mph N/A   Clear
10:43 AM 46.4 °F 38.5 °F -11.2 °F 9% 30.19 in 10.0 mi NW 21.9 mph 33.4 mph N/A   Clear
11:05 AM 46.4 °F 38.5 °F -11.2 °F 9% 30.19 in 10.0 mi NW 21.9 mph 36.8 mph N/A   Clear
11:23 AM 48.2 °F - -9.4 °F 9% 30.20 in 10.0 mi NW 25.3 mph 38.0 mph N/A   Clear
11:43 AM 48.2 °F - -9.4 °F 9% 30.21 in 10.0 mi NW 24.2 mph 31.1 mph N/A   Clear
12:06 PM 50.0 °F - -9.4 °F 8% 30.21 in 10.0 mi NW 21.9 mph 34.5 mph N/A   Clear
12:23 PM 50.0 °F - -9.4 °F 8% 30.20 in 10.0 mi NW 26.5 mph 34.5 mph N/A   Clear
12:44 PM 50.0 °F - -11.2 °F 8% 30.20 in 10.0 mi NW 18.4 mph 31.1 mph N/A   Clear
1:03 PM 51.8 °F - -9.4 °F 8% 30.20 in 10.0 mi NW 16.1 mph 28.8 mph N/A   Clear
1:26 PM 50.0 °F - -7.6 °F 9% 30.19 in 10.0 mi NW 17.3 mph 29.9 mph N/A   Clear
1:43 PM 51.8 °F - -7.6 °F 8% 30.18 in 10.0 mi NW 17.3 mph 27.6 mph N/A   Clear
2:03 PM 51.8 °F - -7.6 °F 8% 30.18 in 10.0 mi WNW 16.1 mph 27.6 mph N/A   Clear
2:24 PM 51.8 °F - -9.4 °F 8% 30.17 in 10.0 mi NW 19.6 mph 31.1 mph N/A   Clear
2:43 PM 51.8 °F - -7.6 °F 8% 30.17 in 10.0 mi NW 18.4 mph 36.8 mph N/A   Clear
3:03 PM 51.8 °F - -7.6 °F 8% 30.17 in 10.0 mi NW 20.7 mph 34.5 mph N/A   Clear
3:24 PM 51.8 °F - -5.8 °F 9% 30.16 in 10.0 mi NW 17.3 mph 32.2 mph N/A   Clear
3:43 PM 51.8 °F - -5.8 °F 9% 30.16 in 10.0 mi WNW 20.7 mph 32.2 mph N/A   Clear
4:03 PM 53.6 °F - -4.0 °F 9% 30.17 in 10.0 mi NW 10.4 mph 23.0 mph N/A   Clear
4:24 PM 51.8 °F - -4.0 °F 10% 30.16 in 10.0 mi NW 15.0 mph 29.9 mph N/A   Clear
4:43 PM 51.8 °F - -4.0 °F 10% 30.17 in 10.0 mi NW 16.1 mph 26.5 mph N/A   Clear
5:03 PM 51.8 °F - -4.0 °F 10% 30.17 in 10.0 mi NW 12.7 mph 28.8 mph N/A   Clear
5:23 PM 50.0 °F - -4.0 °F 11% 30.18 in 10.0 mi NW 11.5 mph 26.5 mph N/A   Clear
5:43 PM 50.0 °F - -4.0 °F 11% 30.18 in 10.0 mi WNW 18.4 mph 24.2 mph N/A   Clear
6:03 PM 48.2 °F - -4.0 °F 11% 30.18 in 10.0 mi WNW 19.6 mph 26.5 mph N/A   Clear
6:23 PM 48.2 °F - -4.0 °F 11% 30.19 in 10.0 mi NW 18.4 mph 29.9 mph N/A   Clear
6:44 PM 48.2 °F - -4.0 °F 11% 30.20 in 10.0 mi NW 13.8 mph 27.6 mph N/A   Clear
7:04 PM 46.4 °F 40.1 °F -4.0 °F 12% 30.20 in 10.0 mi WNW 15.0 mph 28.8 mph N/A   Clear
7:23 PM 46.4 °F 39.5 °F -4.0 °F 12% 30.20 in 10.0 mi WNW 17.3 mph 24.2 mph N/A   Clear
7:43 PM 46.4 °F 39.8 °F -4.0 °F 12% 30.20 in 10.0 mi WNW 16.1 mph 28.8 mph N/A   Clear
8:03 PM 46.4 °F 40.1 °F -2.2 °F 13% 30.21 in 10.0 mi NW 15.0 mph 25.3 mph N/A   Clear
8:24 PM 44.6 °F 36.4 °F -2.2 °F 14% 30.21 in 10.0 mi WNW 20.7 mph 29.9 mph N/A   Clear
8:43 PM 44.6 °F 37.2 °F -2.2 °F 14% 30.21 in 10.0 mi NW 17.3 mph 29.9 mph N/A   Clear
9:03 PM 44.6 °F 36.9 °F -2.2 °F 14% 30.22 in 10.0 mi WNW 18.4 mph 25.3 mph N/A   Clear
9:23 PM 44.6 °F 36.9 °F -2.2 °F 14% 30.21 in 10.0 mi NW 18.4 mph 26.5 mph N/A   Clear
10:04 PM 42.8 °F 34.0 °F -2.2 °F 15% 30.22 in 10.0 mi NW 20.7 mph 33.4 mph N/A   Clear
10:23 PM 42.8 °F 33.8 °F -0.4 °F 16% 30.21 in 10.0 mi NW 21.9 mph 28.8 mph N/A   Clear
10:43 PM 42.8 °F 34.0 °F -0.4 °F 16% 30.21 in 10.0 mi NW 20.7 mph 28.8 mph N/A   Clear
11:03 PM 42.8 °F 36.6 °F -0.4 °F 16% 30.22 in 10.0 mi NNW 11.5 mph 25.3 mph N/A   Clear
11:23 PM 41.0 °F 34.7 °F 1.4 °F 19% 30.23 in 10.0 mi NNW 10.4 mph 16.1 mph N/A   Clear
11:43 PM 41.0 °F 34.7 °F 1.4 °F 19% 30.22 in 10.0 mi NNW 10.4 mph 19.6 mph N/A   Clear